Regional Weather Roundup
Issued by NWS

Home | Current Version | Previous Version | Graphics & Text | Print | Product List | Glossary On
Versions: 1 2 3 4 5 6 7 8 9 10 11 12 13 14 15 16 17 18 19 20 21 22 23 24 25 26 27 28 29 30 31 32 33 34 35 36 37 38 39 40 41 42 43 44 45 46 47 48 49 50
000
ASUS43 KMPX 261010
RWRMN
WEATHER ROUNDUP FOR MINNESOTA
NATIONAL WEATHER SERVICE TWIN CITIES/CHANHASSEN MN
500 AM CDT FRI MAY 26 2017


NOTE: "FAIR" INDICATES FEW OR NO CLOUDS BELOW 12,000 FEET WITH NO
SIGNIFICANT WEATHER AND/OR OBSTRUCTIONS TO VISIBILITY. N/A MEANS
CURRENT SKY AND/OR WEATHER CONDITIONS ARE NOT AVAILABLE.

MNZ060>063-068>070-261100-
   Twin Cities Metro

CITY           SKY/WX    TMP DP  RH WIND       PRES   REMARKS
TWIN CITIES    CLOUDY    61  52  72 SE8       29.69F
ST PAUL        CLOUDY    60  55  83 SE7       29.70F
CRYSTAL        MOCLDY    59  51  75 SE6       29.68S
BLAINE         PTCLDY    63  54  72 S7        29.69S
LAKEVILLE      CLOUDY    55  54  94 CALM      29.70S
EDEN PRAIRIE   CLOUDY    60  52  74 SE8       29.67F
SOUTH ST PAUL  CLOUDY    60  54  80 SE5       29.70S
LAKE ELMO      CLOUDY    61  54  77 SE6       29.72S
$$
MNZ001>005-007-008-013>017-022>024-027-028-261100-
   Northwest Minnesota

CITY           SKY/WX    TMP DP  RH WIND       PRES   REMARKS
BEMIDJI        PTCLDY    52  50  93 SE6       29.63S
HALLOCK        CLEAR     46  45  93 S5        29.57R
ROSEAU         CLEAR     55  50  82 S9        29.58S
WARROAD        CLEAR     57  52  82 S7        29.59R
THIEF RVR FALL CLEAR     52  50  93 S7        29.60S
CROOKSTON      CLEAR     48  46  93 S3        29.60R
FOSSTON        PTCLDY    52  48  87 S7        29.62R
DETROIT LAKES  CLEAR     52  50  93 S5        29.64R
MOORHEAD       PTCLDY    52  50  93 S5        29.63R
PARK RAPIDS    CLOUDY    55  49  80 SE8       29.63S
MAHNOMEN       FAIR      52  49  91 S6        29.62R
$$
MNZ006-009>011-018-025>026-261100-
   North Central Minnesota

CITY           SKY/WX    TMP DP  RH WIND       PRES   REMARKS
BAUDETTE       CLOUDY    57  51  80 SE10      29.61S
FLAG ISLAND    CLOUDY    57  52  82 S17       29.57S
INTL FALLS     CLOUDY    53  50  89 SE9       29.65F
WASKISH        CLOUDY    55  52  88 S7          N/A
BIG FORK       CLOUDY    54  52  94 SE3       29.66S
LONGVILLE      CLOUDY    54  52  94 CALM      29.66S
GRAND RAPIDS   CLOUDY    52  50  93 SE8       29.69F
CRANE LAKE     CLOUDY    50  48  93 CALM      29.72S
ORR            CLOUDY    50  46  87 SE7       29.67F
COOK           CLOUDY    52  48  87 CALM      29.71S
WALKER         PTSUNNY   55  51  88 SE5       29.64S
$$
MNZ012-019>021-037-261100-
   Northeast Minnesota

CITY           SKY/WX    TMP DP  RH WIND       PRES   REMARKS
DULUTH         CLOUDY    49  47  93 E7        29.73F
ELY            DRIZZLE   52  46  82 S5        29.73F
HIBBING        CLOUDY    49  49 100 SE7       29.70F
EVELETH        CLOUDY    53  49  88 CALM      29.73F
DULUTH HARBOR  CLOUDY    46  43  87 NE9       29.75F
TWO HARBORS    LGT RAIN  52  46  82 CALM      29.73S
SILVER BAY     LGT RAIN  50  48  93 CALM      29.74S
GRAND MARAIS     N/A     48  43  82 NE9       29.76S
G MARAIS ARPRT CLOUDY    52  43  71 E3        29.77F
$$
MNZ029>031-032-039>041-046>048-054>057-064-261100-
   West Central Minnesota

CITY           SKY/WX    TMP DP  RH WIND       PRES   REMARKS
FERGUS FALLS   CLEAR     52  52 100 S7        29.62S
WHEATON        PTCLDY    54  50  87 W3        29.66R
MORRIS         CLOUDY    50  48  93 SE3       29.64S
ALEXANDRIA     PTCLDY    53  50  89 S3        29.66S
ELBOW LAKE     FAIR      50  50  99 S7        29.64S
WADENA         CLOUDY    54  50  87 S3        29.64S
GLENWOOD       CLOUDY    52  48  87 S6        29.66S
APPLETON       CLOUDY    52  48  87 CALM      29.64S
BENSON         CLOUDY    52  48  87 SW3       29.67R
ORTONVILLE     PTCLDY    54  52  94 W3        29.64S
MADISON        CLOUDY    54  54 100 SW5       29.65R
WILLMAR        FAIR      54  52  94 SE3       29.67S
$$
MNZ033>034-036-042>043-049>051-058-059-261100-
   Central Minnesota

CITY           SKY/WX    TMP DP  RH WIND       PRES   REMARKS
ST CLOUD       CLOUDY    58  54  86 SE7       29.66F
SAUK CENTRE    FAIR      52  50  91 SE5       29.66S
PAYNESVILLE    CLOUDY    57  50  78 S8        29.67S
AITKIN         CLOUDY    54  52  94 SE6       29.66S
PINE RIVER     PTCLDY    52  52 100 CALM      29.70S
BRAINERD       CLOUDY    55  53  93 SE5       29.66F
STAPLES        CLOUDY    54  50  87 S5        29.65S
LONG PRAIRIE   FAIR      50  48  93 SE5       29.66S
LITTLE FALLS   CLOUDY    55  50  82 SE6       29.66S
LITCHFIELD     CLOUDY    59  54  82 CALM      29.68S
BUFFALO        CLOUDY    60  51  71 SE3       29.68F
MAPLE LAKE     CLOUDY    61  54  77 S3        29.68F
HUTCHINSON     CLOUDY    59  53  80 CALM      29.69S
$$
MNZ037-044-045-052-053-261100-
   East Central Minnesota

CITY           SKY/WX    TMP DP  RH WIND       PRES   REMARKS
PRINCETON      CLOUDY    61  54  77 SE7       29.68F
MORA           CLOUDY    55  52  88 SE3       29.70F
CAMBRIDGE      CLOUDY    63  54  72 SE6       29.67F
RUSH CITY      CLOUDY    57  54  89 CALM      29.70F
MOOSE LAKE     CLOUDY    46  45  93 NE3       29.70S
HINCKLEY       CLOUDY    55  54  94 E6        29.71S
CLOQUET        CLOUDY    46  45  93 E3        29.72S
MCGREGOR       CLOUDY    52  50  93 SE7       29.69F
$$
MNZ071>073-080-081-089-090-097-098-261100-
   Southwest Minnesota

CITY           SKY/WX    TMP DP  RH WIND       PRES   REMARKS
MONTEVIDEO     CLEAR     52  50  93 CALM      29.65S
CANBY          CLOUDY    57  52  82 CALM      29.66S
MARSHALL       CLOUDY    54  50  86 S8        29.66R
REDWOOD FALLS  CLEAR     55  50  83 CALM      29.67R
OLIVIA         CLEAR     54  50  87 SE6       29.66S
PIPESTONE      CLOUDY    54  46  76 CALM      29.68R
WINDOM         CLOUDY    57  52  82 CALM      29.68S
WORTHINGTON    MOCLDY    56  51  84 S7        29.69R
JACKSON        CLOUDY    59  52  77 CALM      29.69S
TRACY          CLOUDY    57  52  84 SW10      29.67S
SLAYTON        CLOUDY    52  50  92 SW3       29.69S
$$
MNZ065>067-074>077-082>085-091>093-261100-
   South Central Minnesota

CITY           SKY/WX    TMP DP  RH WIND       PRES   REMARKS
MANKATO        CLOUDY    58  52  80 SE9       29.69S
NEW ULM        CLOUDY    57  52  82 SE6       29.68R
ST JAMES       CLOUDY    61  52  72 S7        29.69R
FAIRMONT       CLOUDY    58  52  80 S7        29.69S
GLENCOE        CLOUDY    61  55  79 S3        29.67F
FARIBAULT      CLOUDY    59  52  77 SE7       29.70F
OWATONNA       PTCLDY    57  50  77 SE8       29.71S
WASECA         CLOUDY    55  52  88 SE6       29.71F
ALBERT LEA     PTCLDY    57  52  82 S5        29.71S
$$
MNZ078>079-086>088-094>096-261100-
   Southeast Minnesota

CITY           SKY/WX    TMP DP  RH WIND       PRES   REMARKS
ROCHESTER      CLOUDY    53  51  93 SE10      29.74S
RED WING       MOCLDY    61  52  72 SE7       29.72S
STANTON        CLOUDY    60  53  76 SE6       29.70S
DODGE CENTER   CLOUDY    54  50  87 SE6       29.73S
WINONA         CLEAR     55  54  94 CALM      29.75S
AUSTIN         CLOUDY    55  50  82 S3        29.72S
PRESTON        CLOUDY    55  51  86 S7        29.75R
$$
ABBREVIATIONS USED IN REMARKS
   TC - TEMPERATURES IN CELSIUS
  WCI - WIND CHILL INDEX
   HX - HEAT INDEX
  VSB - VISIBILITY
$$




USA.gov is the U.S. government's official web portal to all federal, state and local government web resources and services.